Temp
-13 -13 -13 -13 -13 -13 -13 -13 -14 -14 -14 -14 -14 -14 -14 -14 -14 -14 -14 -14 -14 -14 -14 -14 -13 -13 -13 -13 -13 -13 -13 -13 -13 -13 -13 -13 -13 -13 -13 -13 -13 -13
-13 -13 -13 -13 -13 -13 -13 -13 -14 -14 -14 -14 -14 -14 -14 -14 -14 -14 -14 -14 -14 -14 -14 -14 -14 -13 -13 -13 -13 -13 -13 -13 -13 -13 -13 -13 -13 -13 -13 -13 -13 -13
-13 -13 -13 -13 -13 -13 -13 -13 -14 -14 -14 -14 -14 -14 -14 -14 -14 -14 -14 -14 -14 -14 -14 -14 -14 -14 -14 -14 -14 -14 -14 -13 -13 -13 -13 -13 -13 -13 -13 -13 -13 -13
-13 -13 -13 -13 -13 -13 -13 -14 -14 -14 -14 -14 -14 -14 -14 -14 -14 -14 -14 -14 -14 -14 -14 -14 -14 -14 -14 -14 -14 -14 -14 -14 -14 -13 -13 -13 -13 -13 -13 -14 -14 -13
-13 -13 -14 -14 -14 -14 -14 -14 -14 -14 -14 -14 -14 -14 -14 -14 -14 -14 -14 -14 -14 -14 -14 -14 -14 -14 -14 -14 -14 -14 -14 -14 -14 -14 -14 -14 -14 -14 -14 -14 -14 -13
-13 -14 -14 -14 -14 -14 -14 -14 -14 -14 -14 -14 -14 -14 -14 -14 -14 -14 -14 -14 -14 -14 -14 -14 -14 -14 -14 -14 -14 -14 -14 -14 -14 -14 -14 -14 -14 -14 -14 -14 -14 -14
-14 -14 -14 -14 -14 -14 -14 -14 -14 -14 -14 -14 -14 -14 -14 -14 -14 -14 -14 -14 -14 -14 -14 -14 -14 -14 -14 -14 -14 -14 -14 -14 -14 -14 -14 -14 -14 -14 -14 -14 -14 -14
-14 -14 -14 -14 -14 -14 -14 -14 -14 -14 -14 -14 -15 -15 -15 -15 -15 -15 -14 -14 -14 -14 -14 -14 -14 -14 -14 -14 -14 -14 -14 -15 -15 -14 -14 -14 -14 -14 -14 -14 -14 -14
-14 -14 -14 -14 -14 -14 -14 -14 -15 -14 -15 -15 -15 -15 -15 -15 -15 -15 -15 -14 -14 -14 -15 -15 -15 -15 -14 -14 -14 -14 -14 -15 -15 -15 -15 -15 -15 -15 -15 -15 -15 -14
-14 -14 -14 -14 -14 -14 -14 -14 -15 -15 -15 -15 -15 -15 -15 -15 -15 -15 -15 -15 -15 -15 -15 -15 -15 -15 -15 -14 -14 -14 -15 -15 -15 -15 -15 -15 -15 -15 -15 -15 -15 -15
-14 -14 -14 -14 -14 -14 -14 -15 -15 -15 -15 -15 -15 -15 -15 -15 -15 -15 -15 -15 -15 -15 -15 -15 -15 -15 -15 -15 -14 -14 -15 -15 -15 -15 -15 -15 -15 -15 -15 -15 -15 -15
-14 -14 -14 -14 -14 -14 -14 -15 -15 -15 -15 -15 -15 -15 -15 -15 -15 -15 -15 -15 -15 -15 -15 -15 -15 -15 -15 -15 -15 -15 -15 -15 -15 -15 -15 -15 -15 -15 -15 -15 -15 -15
-14 -14 -14 -14 -14 -14 -15 -15 -15 -15 -15 -15 -15 -15 -15 -15 -15 -15 -15 -15 -15 -15 -15 -15 -15 -15 -15 -15 -15 -15 -15 -15 -15 -15 -15 -15 -15 -16 -15 -15 -15 -15
-14 -14 -14 -14 -14 -15 -15 -15 -15 -15 -15 -15 -15 -15 -15 -15 -15 -15 -15 -15 -15 -15 -15 -15 -15 -15 -15 -15 -15 -15 -15 -15 -15 -15 -15 -16 -16 -16 -16 -15 -15 -15
-14 -14 -14 -14 -15 -15 -15 -15 -15 -15 -15 -15 -15 -15 -15 -15 -15 -15 -15 -15 -15 -15 -15 -15 -15 -15 -15 -15 -15 -15 -16 -15 -15 -16 -16 -16 -16 -16 -16 -16 -16 -16
-14 -14 -14 -14 -15 -15 -15 -15 -15 -15 -15 -15 -15 -15 -15 -15 -15 -15 -15 -15 -15 -15 -15 -16 -15 -15 -15 -15 -15 -16 -16 -16 -16 -16 -16 -16 -16 -16 -16 -16 -16 -16
-14 -14 -14 -15 -15 -15 -15 -15 -15 -15 -15 -15 -15 -15 -15 -15 -15 -15 -15 -15 -15 -15 -15 -16 -15 -15 -15 -15 -16 -16 -16 -16 -16 -16 -16 -16 -16 -16 -16 -16 -16 -16
-15 -15 -15 -15 -15 -15 -15 -15 -15 -15 -15 -15 -15 -15 -15 -15 -15 -15 -15 -15 -15 -15 -15 -15 -15 -15 -16 -16 -16 -16 -16 -16 -16 -16 -16 -16 -16 -16 -16 -16 -16 -16
-15 -15 -15 -15 -15 -15 -15 -15 -15 -15 -15 -15 -15 -15 -15 -15 -15 -15 -15 -15 -15 -15 -15 -15 -15 -15 -16 -16 -16 -16 -16 -16 -16 -16 -16 -16 -16 -16 -16 -16 -16 -17
-15 -15 -15 -15 -15 -15 -15 -15 -15 -15 -15 -15 -15 -15 -15 -15 -16 -15 -15 -15 -15 -15 -15 -15 -15 -15 -16 -16 -16 -16 -16 -16 -16 -16 -16 -16 -16 -16 -16 -17 -17 -17
-15 -15 -15 -15 -15 -15 -15 -15 -15 -15 -15 -15 -15 -15 -15 -15 -16 -15 -15 -15 -15 -15 -15 -15 -15 -16 -16 -16 -16 -16 -16 -16 -16 -17 -17 -16 -16 -17 -17 -17 -17 -17
-15 -15 -15 -15 -15 -15 -15 -15 -15 -15 -15 -15 -15 -15 -15 -16 -16 -15 -15 -15 -15 -15 -15 -15 -16 -16 -16 -16 -16 -16 -16 -17 -17 -17 -17 -17 -17 -17 -17 -17 -17 -17
-15 -15 -15 -15 -15 -15 -15 -15 -15 -15 -15 -15 -15 -15 -15 -15 -15 -15 -15 -15 -15 -15 -15 -16 -16 -16 -16 -16 -17 -17 -17 -17 -17 -17 -17 -17 -17 -17 -17 -17 -17 -17
-15 -15 -15 -15 -15 -15 -15 -15 -15 -15 -15 -15 -15 -15 -15 -15 -15 -16 -16 -15 -15 -15 -16 -16 -16 -16 -16 -17 -17 -17 -17 -17 -17 -17 -17 -17 -17 -17 -17 -17 -17 -17
-15 -15 -15 -15 -15 -15 -15 -15 -15 -15 -15 -15 -15 -15 -15 -15 -16 -16 -16 -15 -15 -16 -16 -16 -16 -16 -16 -17 -17 -17 -17 -17 -17 -17 -17 -17 -17 -18 -17 -17 -17 -17
-15 -14 -14 -14 -15 -15 -15 -15 -15 -15 -15 -15 -15 -15 -15 -16 -16 -16 -16 -16 -16 -16 -16 -16 -16 -16 -17 -17 -17 -17 -17 -17 -17 -17 -17 -17 -18 -18 -18 -18 -17 -17
Height
5798 5799 5800 5801 5803 5804 5805 5806 5807 5807 5808 5808 5809 5810 5810 5811 5811 5811 5811 5811 5811 5810 5810 5809 5808 5808 5807 5805 5804 5803 5801 5799 5797 5796 5794 5792 5791 5789 5787 5785 5783 5781
5797 5798 5799 5800 5801 5802 5803 5804 5805 5806 5807 5807 5808 5809 5809 5809 5809 5809 5809 5809 5809 5809 5808 5807 5807 5806 5805 5803 5802 5800 5799 5797 5795 5794 5792 5790 5788 5787 5785 5783 5781 5779
5796 5797 5798 5799 5800 5801 5802 5802 5803 5804 5805 5806 5807 5807 5807 5807 5807 5807 5807 5807 5807 5807 5807 5806 5805 5804 5802 5801 5800 5798 5797 5795 5793 5791 5790 5788 5786 5785 5783 5781 5779 5776
5795 5796 5797 5798 5799 5799 5800 5801 5802 5803 5804 5804 5805 5805 5805 5805 5806 5806 5806 5806 5806 5806 5805 5804 5803 5802 5800 5799 5797 5796 5794 5792 5791 5789 5787 5786 5784 5782 5780 5778 5776 5774
5793 5794 5795 5796 5797 5798 5799 5800 5801 5802 5802 5803 5803 5803 5803 5804 5804 5804 5804 5804 5804 5804 5803 5802 5801 5800 5798 5796 5795 5793 5792 5790 5788 5787 5785 5784 5782 5780 5778 5776 5774 5772
5792 5793 5794 5795 5796 5796 5798 5799 5800 5800 5801 5801 5801 5801 5802 5802 5803 5803 5803 5803 5803 5802 5801 5800 5799 5798 5796 5794 5793 5791 5789 5787 5786 5784 5783 5781 5779 5778 5776 5774 5772 5769
5791 5792 5792 5793 5794 5795 5796 5797 5798 5799 5799 5799 5799 5799 5800 5801 5801 5801 5801 5801 5801 5800 5800 5798 5797 5796 5794 5792 5790 5788 5787 5785 5783 5782 5780 5779 5777 5775 5773 5771 5769 5766
5789 5790 5790 5791 5792 5794 5795 5796 5796 5797 5797 5797 5797 5798 5798 5799 5799 5799 5799 5799 5799 5798 5797 5796 5795 5794 5792 5790 5788 5786 5784 5782 5780 5779 5778 5776 5775 5773 5770 5768 5766 5764
5787 5788 5788 5789 5791 5792 5793 5794 5794 5795 5795 5795 5796 5796 5796 5797 5797 5797 5797 5796 5796 5796 5795 5794 5793 5791 5789 5787 5785 5783 5781 5779 5778 5776 5775 5774 5772 5770 5768 5766 5764 5761
5785 5786 5786 5787 5789 5790 5791 5792 5792 5793 5793 5793 5794 5794 5795 5795 5795 5795 5795 5794 5794 5793 5793 5792 5791 5789 5787 5785 5783 5781 5779 5777 5775 5774 5772 5771 5769 5767 5765 5763 5761 5759
5783 5784 5784 5785 5787 5788 5789 5790 5790 5791 5791 5791 5792 5792 5792 5793 5793 5793 5793 5792 5791 5791 5790 5789 5788 5786 5784 5782 5780 5778 5776 5774 5773 5771 5770 5768 5767 5765 5763 5760 5758 5756
5781 5781 5782 5784 5785 5786 5787 5788 5788 5789 5789 5789 5790 5790 5790 5791 5791 5791 5790 5790 5789 5788 5788 5787 5785 5783 5782 5780 5778 5776 5774 5772 5770 5769 5768 5766 5764 5762 5760 5758 5756 5754
5779 5779 5780 5782 5784 5785 5786 5786 5786 5787 5787 5787 5787 5788 5788 5788 5788 5788 5788 5787 5786 5786 5785 5784 5782 5781 5779 5777 5775 5773 5771 5770 5768 5767 5765 5763 5761 5760 5758 5756 5754 5752
5777 5778 5779 5781 5782 5783 5784 5784 5784 5784 5785 5785 5785 5786 5786 5786 5786 5785 5785 5785 5784 5783 5782 5781 5779 5778 5776 5774 5772 5771 5769 5768 5766 5765 5763 5761 5759 5757 5756 5754 5751 5750
5776 5776 5778 5779 5781 5781 5782 5782 5782 5782 5782 5783 5783 5783 5783 5783 5783 5783 5783 5782 5782 5781 5780 5778 5777 5775 5773 5771 5770 5768 5767 5766 5764 5762 5760 5759 5757 5755 5753 5751 5749 5747
5774 5775 5776 5778 5779 5779 5780 5780 5780 5780 5780 5781 5781 5781 5781 5781 5781 5781 5780 5780 5779 5778 5777 5775 5774 5772 5770 5769 5767 5766 5765 5763 5761 5760 5758 5756 5755 5753 5751 5749 5747 5745
5772 5774 5775 5776 5777 5777 5778 5778 5778 5778 5778 5778 5778 5778 5778 5778 5778 5778 5778 5777 5776 5775 5774 5772 5771 5769 5768 5766 5765 5763 5762 5761 5759 5757 5756 5754 5752 5750 5749 5747 5745 5743
5771 5772 5773 5774 5774 5775 5775 5775 5775 5775 5775 5775 5775 5775 5776 5776 5776 5776 5775 5774 5773 5772 5771 5769 5768 5766 5765 5763 5762 5761 5759 5758 5756 5755 5753 5751 5750 5748 5746 5745 5743 5741
5769 5770 5771 5772 5772 5772 5772 5772 5772 5772 5772 5772 5772 5773 5773 5773 5773 5773 5772 5771 5770 5769 5768 5767 5765 5764 5762 5760 5759 5758 5756 5755 5754 5752 5751 5749 5747 5746 5744 5743 5741 5739
5767 5768 5769 5769 5769 5769 5769 5769 5769 5769 5769 5769 5770 5770 5771 5771 5771 5770 5770 5769 5768 5767 5765 5764 5762 5761 5759 5758 5756 5755 5753 5752 5751 5749 5748 5746 5745 5744 5742 5741 5739 5737
5766 5766 5766 5766 5766 5766 5766 5766 5766 5766 5767 5767 5767 5768 5768 5768 5768 5768 5767 5766 5765 5764 5762 5761 5759 5758 5756 5755 5753 5752 5751 5749 5748 5747 5745 5744 5743 5742 5740 5739 5737 5735
5764 5764 5764 5764 5763 5763 5763 5763 5763 5763 5764 5764 5765 5765 5766 5766 5765 5765 5764 5763 5762 5761 5759 5758 5756 5755 5753 5751 5750 5749 5748 5746 5745 5744 5743 5742 5741 5740 5738 5736 5735 5733
5761 5761 5761 5761 5761 5760 5760 5760 5760 5761 5761 5762 5762 5763 5763 5763 5763 5762 5761 5760 5759 5757 5756 5754 5753 5751 5750 5748 5747 5746 5745 5744 5743 5742 5741 5740 5739 5737 5736 5734 5732 5731
5758 5758 5758 5757 5757 5757 5757 5758 5758 5758 5759 5760 5760 5760 5760 5761 5760 5759 5758 5757 5756 5754 5753 5751 5749 5748 5746 5745 5744 5743 5742 5741 5740 5739 5738 5737 5736 5735 5733 5732 5730 5728
5755 5755 5753 5752 5753 5754 5755 5755 5756 5756 5756 5757 5757 5757 5758 5758 5757 5756 5755 5753 5752 5751 5749 5747 5746 5744 5743 5742 5741 5740 5739 5738 5737 5737 5736 5735 5733 5732 5731 5729 5728 5726
5752 5750 5748 5749 5749 5750 5752 5753 5753 5753 5754 5754 5754 5755 5755 5754 5754 5753 5751 5750 5748 5747 5746 5744 5742 5741 5740 5739 5738 5737 5736 5735 5735 5734 5733 5732 5731 5729 5728 5727 5725 5723
Wind_Speed
17 16 15 15 14 13 12 12 12 11 9 8 11 14 13 13 13 14 15 15 16 18 19 21 22 22 23 24 24 25 25 24 24 22 22 22 22 23 24 25 26 25
18 17 15 14 13 12 12 12 12 11 9 10 13 14 13 13 14 14 15 16 17 18 20 21 22 23 24 25 26 26 25 24 24 23 22 23 23 23 25 26 26 26
18 17 15 14 13 12 12 12 11 10 10 12 13 13 13 14 14 14 15 17 18 19 20 21 23 24 25 26 27 27 26 25 24 23 23 23 23 24 26 27 27 27
17 17 16 14 13 12 12 11 10 9 11 12 13 13 14 14 14 15 16 17 19 20 21 22 23 25 26 27 27 27 27 25 24 23 23 24 25 26 27 28 28 28
17 17 16 14 12 12 11 10 9 9 11 12 12 13 14 14 14 15 16 18 19 20 21 23 24 25 26 27 28 28 27 26 25 24 24 25 26 27 28 29 29 29
16 16 15 12 12 13 12 10 9 10 12 12 13 13 14 15 15 16 17 19 20 21 22 23 24 25 26 27 28 28 28 27 26 25 25 25 27 28 29 30 30 30
17 16 14 12 13 13 12 10 9 11 13 13 13 14 15 15 16 17 18 19 20 21 22 23 24 25 27 27 28 28 28 28 27 25 25 26 28 29 30 31 31 30
17 15 14 13 14 13 11 10 10 12 13 14 14 14 15 15 16 18 20 21 21 22 22 23 25 26 27 27 28 28 28 28 27 26 26 27 29 30 31 31 31 30
17 16 15 15 14 13 11 11 12 13 13 13 14 14 15 16 17 19 21 21 22 22 23 24 26 27 27 27 28 28 28 28 27 27 28 29 30 31 31 31 30 30
17 17 16 16 15 13 12 11 13 13 13 14 14 15 16 17 18 20 21 21 22 23 24 26 27 27 27 28 28 28 28 29 29 29 29 29 30 30 30 30 30 30
18 18 17 16 15 13 12 13 14 14 14 14 15 16 17 18 19 20 20 21 23 25 26 27 27 27 27 28 28 28 29 29 30 30 30 30 30 29 29 29 29 29
18 18 18 16 14 13 13 14 14 14 15 16 16 17 18 18 19 19 20 23 25 26 27 28 27 27 28 28 28 29 29 30 30 31 30 30 29 28 28 27 28 28
18 18 17 15 13 13 14 14 15 15 16 17 18 18 18 18 19 20 22 24 26 27 27 27 27 28 28 29 29 29 29 29 30 30 29 29 28 27 26 27 27 27
19 18 17 14 13 13 15 15 16 17 18 18 18 18 18 19 20 21 23 26 27 27 27 27 27 28 29 29 29 29 29 29 29 29 28 27 26 25 25 26 26 27
18 18 15 13 13 14 15 16 17 18 19 19 18 18 19 20 21 23 25 26 26 26 26 27 27 28 29 29 29 29 28 28 28 27 26 26 25 24 25 26 26 27
17 16 14 13 13 14 15 17 18 19 19 19 19 19 20 21 22 23 24 24 25 25 25 26 28 28 29 29 29 29 28 28 27 26 25 24 24 24 25 26 27 27
16 14 13 13 13 14 16 18 20 20 20 20 20 20 21 21 22 23 23 24 24 25 26 27 28 29 29 29 29 28 28 27 26 25 24 24 24 24 25 26 27 27
16 15 14 14 15 16 17 19 20 21 20 20 20 21 21 22 22 23 23 24 24 26 27 28 29 29 29 29 28 28 27 26 25 24 23 23 23 24 25 26 27 26
17 15 15 15 16 17 19 20 21 21 22 22 22 21 21 22 23 23 24 25 26 27 28 29 29 29 29 29 28 27 27 26 25 23 23 22 23 24 26 26 26 25
17 16 16 17 18 19 20 22 22 23 23 22 22 21 21 22 23 24 25 26 27 28 29 30 30 29 29 29 28 27 27 26 25 23 22 22 23 25 26 26 25 25
17 17 18 19 20 21 22 23 24 23 21 19 19 19 20 21 23 24 25 27 28 29 30 30 30 30 30 29 28 27 26 26 25 23 22 22 23 25 26 25 25 25
20 20 21 21 21 22 22 22 22 20 18 17 17 19 20 21 23 24 26 28 29 30 30 30 30 30 30 29 28 27 27 26 24 22 21 22 24 25 26 25 25 25
23 22 21 21 21 20 19 19 18 17 17 17 18 19 20 21 23 25 27 28 29 30 31 31 31 30 30 29 28 27 27 26 24 22 21 22 24 25 26 25 25 25
24 23 23 22 21 19 17 16 16 16 17 17 18 19 20 22 24 26 27 28 30 31 31 31 31 30 30 29 28 27 26 25 23 22 21 23 24 26 26 25 25 26
25 25 26 24 22 20 18 17 17 17 17 18 19 20 21 23 25 26 28 29 30 31 31 31 31 31 30 28 26 25 24 23 22 21 22 23 24 26 26 25 25 26
29 29 28 25 23 21 20 19 18 18 18 19 20 21 22 24 25 27 28 30 31 31 32 31 31 30 28 26 24 23 22 22 21 21 22 23 25 26 26 25 25 27
Wind_Direction
224 223 220 216 219 224 227 221 222 232 247 255 253 254 257 261 265 273 283 292 300 304 305 305 304 304 305 307 312 317 320 321 320 318 317 316 316 318 320 321 321 324
223 221 217 216 218 218 215 213 219 233 246 251 251 252 257 261 268 278 288 295 301 303 303 302 301 302 304 308 312 317 320 320 319 317 316 316 316 318 319 321 323 326
220 217 216 214 211 211 214 218 225 234 243 246 249 252 257 264 273 283 291 296 299 300 299 298 298 301 305 309 313 317 318 318 317 316 316 317 317 318 320 323 325 326
214 212 210 206 206 215 222 225 229 234 240 245 249 253 260 269 278 285 291 295 297 297 296 296 299 303 306 310 313 315 316 317 316 316 317 318 319 320 322 323 324 324
209 205 201 202 213 224 227 226 227 234 241 247 250 256 264 273 280 286 290 293 293 293 294 297 300 304 307 311 313 314 315 315 315 316 317 318 319 321 322 322 322 323
203 198 200 211 223 227 225 222 226 236 243 247 252 258 266 274 280 285 288 289 289 290 294 298 302 305 309 312 313 313 313 313 314 316 317 318 319 320 320 320 321 322
198 200 210 221 224 224 221 218 226 238 242 245 251 258 267 274 280 283 284 284 285 290 294 299 303 307 310 311 311 312 312 312 313 315 317 318 318 318 318 319 320 322
205 211 219 223 222 219 214 214 226 236 240 245 252 260 267 274 279 281 281 283 286 292 297 301 306 309 310 310 311 312 312 313 314 316 317 316 315 316 316 317 320 322
214 218 220 220 219 214 210 215 227 235 242 248 255 261 266 271 275 277 279 284 289 294 299 304 308 310 310 311 312 312 313 314 316 317 316 314 313 313 313 316 319 322
218 219 220 219 216 210 208 217 228 237 243 249 255 260 264 268 272 275 279 285 290 295 300 306 309 310 310 312 312 312 313 314 316 317 316 314 312 310 312 316 320 322
218 219 219 218 213 208 210 220 229 236 242 248 253 258 263 266 270 275 281 286 292 296 301 306 309 309 310 312 312 312 312 314 315 316 316 314 312 312 314 318 321 323
218 219 219 216 212 210 215 224 230 235 241 247 252 257 261 266 270 277 283 288 293 297 302 306 307 308 310 312 312 313 313 313 314 315 316 315 315 315 318 320 322 324
218 219 219 216 213 215 222 226 230 235 241 247 252 257 262 267 273 279 285 290 294 298 302 305 306 307 310 312 313 313 313 312 312 313 315 316 315 316 318 321 323 325
217 218 218 214 213 218 223 227 232 237 243 248 253 258 265 271 276 281 287 291 295 299 303 304 305 307 310 312 312 312 311 311 311 313 315 314 314 315 318 321 323 325
215 218 218 214 214 220 225 230 236 242 246 251 257 263 269 273 277 282 288 292 297 301 303 304 306 308 310 310 310 310 310 310 311 313 313 312 312 315 319 321 323 324
217 220 221 219 219 224 230 236 242 247 251 257 263 267 270 274 279 285 290 295 299 302 304 305 307 308 309 309 309 309 310 310 312 313 311 309 311 316 320 322 322 323
220 221 221 221 223 228 234 240 246 251 256 261 265 267 270 276 283 289 294 298 301 303 305 306 307 307 307 307 308 309 309 310 311 311 308 308 312 317 320 321 321 321
219 220 220 222 227 232 238 243 249 254 258 261 263 265 271 280 286 291 296 299 301 303 304 305 305 306 306 306 307 308 309 309 310 308 305 308 314 319 320 319 318 319
218 220 224 230 236 242 248 252 256 260 261 261 261 265 273 280 286 291 295 298 300 301 303 304 306 306 305 305 306 307 308 309 307 305 305 310 316 318 318 317 316 317
220 226 233 240 246 251 255 258 261 264 264 262 261 265 272 277 283 289 294 297 299 301 303 305 306 306 305 305 305 306 307 307 305 303 305 311 316 317 316 315 315 316
224 230 238 246 251 255 258 260 261 263 263 260 259 263 269 275 282 288 293 296 299 301 304 306 307 306 305 305 305 305 305 305 304 302 304 310 314 315 315 315 314 315
228 232 239 246 252 255 258 258 258 257 255 256 258 263 269 275 282 288 293 297 299 301 304 306 306 306 306 306 306 305 303 303 302 299 302 309 313 314 314 314 313 314
227 232 238 245 249 251 253 253 252 252 253 257 261 265 271 278 284 290 294 297 299 302 305 306 307 307 307 306 306 304 302 300 299 297 300 307 312 314 313 313 312 314
231 237 240 243 245 247 249 250 250 253 256 260 264 268 274 280 286 292 296 298 300 303 305 306 307 307 306 305 303 301 299 297 296 295 299 307 312 313 313 312 312 314
237 244 244 242 244 246 248 251 255 258 261 264 268 272 277 283 288 293 297 300 302 304 305 306 306 306 305 303 300 297 296 295 294 294 300 308 312 312 311 311 312 315
241 246 244 239 240 246 250 254 259 263 266 268 270 274 279 284 289 294 298 301 302 303 304 305 305 304 303 300 297 295 295 295 294 295 301 308 311 311 310 309 311 314